TimeCDT,TemperatureF,Dew PointF,Humidity,Sea Level PressureIn,VisibilityMPH,Wind Direction,Wind SpeedMPH,Gust SpeedMPH,PrecipitationIn,Events,Conditions,WindDirDegrees,DateUTC
12:15 AM,62.6,60.6,93,30.12,5.0,Calm,Calm,-,N/A,,Overcast,0,2013-08-16 05:15:00
12:55 AM,62.8,60.8,93,30.12,5.0,East,3.5,-,N/A,Rain,Heavy Rain,100,2013-08-16 05:55:00
1:15 AM,62.8,60.6,93,30.12,7.0,East,3.5,-,0.02,,Heavy Drizzle,80,2013-08-16 06:15:00
1:35 AM,62.6,60.4,93,30.12,7.0,Calm,Calm,-,0.03,,Drizzle,0,2013-08-16 06:35:00
1:55 AM,62.6,60.3,92,30.12,10.0,Calm,Calm,-,0.03,,Overcast,0,2013-08-16 06:55:00
2:15 AM,62.6,60.3,92,30.12,10.0,East,3.5,-,N/A,,Overcast,80,2013-08-16 07:15:00
2:35 AM,62.6,60.1,91,30.12,10.0,East,3.5,-,N/A,,Drizzle,80,2013-08-16 07:35:00
2:55 AM,62.2,59.9,92,30.11,10.0,East,3.5,-,0.01,,Overcast,90,2013-08-16 07:55:00
3:15 AM,62.2,59.9,92,30.10,10.0,ESE,5.8,-,N/A,,Overcast,110,2013-08-16 08:15:00
3:35 AM,62.1,59.7,92,30.11,10.0,East,3.5,-,N/A,,Overcast,80,2013-08-16 08:35:00
3:55 AM,62.1,59.9,93,30.11,10.0,Calm,Calm,-,N/A,,Overcast,0,2013-08-16 08:55:00
4:15 AM,62.2,59.9,92,30.11,10.0,East,3.5,-,N/A,,Overcast,100,2013-08-16 09:15:00
4:35 AM,62.2,59.9,92,30.11,10.0,East,4.6,-,N/A,,Overcast,90,2013-08-16 09:35:00
4:55 AM,62.2,59.9,92,30.12,10.0,ENE,3.5,-,N/A,,Overcast,70,2013-08-16 09:55:00
5:15 AM,62.1,59.5,91,30.12,10.0,NE,3.5,-,N/A,,Overcast,50,2013-08-16 10:15:00
5:35 AM,62.1,59.9,93,30.12,10.0,NE,3.5,-,N/A,,Overcast,50,2013-08-16 10:35:00
5:55 AM,61.9,59.4,91,30.12,10.0,Calm,Calm,-,N/A,,Overcast,0,2013-08-16 10:55:00
6:15 AM,61.7,59.2,91,30.12,10.0,East,3.5,-,N/A,,Overcast,90,2013-08-16 11:15:00
6:35 AM,61.7,59.0,91,30.12,10.0,ESE,4.6,-,N/A,,Overcast,110,2013-08-16 11:35:00
6:55 AM,61.7,59.0,91,30.13,10.0,ESE,4.6,-,N/A,,Overcast,110,2013-08-16 11:55:00
7:15 AM,61.9,58.8,90,30.14,10.0,ESE,4.6,-,N/A,,Overcast,110,2013-08-16 12:15:00
7:35 AM,61.9,58.6,89,30.14,10.0,East,3.5,-,N/A,,Overcast,100,2013-08-16 12:35:00
7:55 AM,62.1,58.6,89,30.15,10.0,East,3.5,-,N/A,,Overcast,100,2013-08-16 12:55:00
8:15 AM,62.6,59.0,88,30.15,10.0,East,4.6,-,N/A,,Overcast,100,2013-08-16 13:15:00
8:35 AM,63.0,58.6,86,30.16,10.0,East,5.8,-,N/A,,Overcast,100,2013-08-16 13:35:00
8:55 AM,63.3,59.0,86,30.16,10.0,ESE,3.5,-,N/A,,Overcast,110,2013-08-16 13:55:00
9:15 AM,63.7,59.0,85,30.17,10.0,ESE,4.6,-,N/A,,Overcast,110,2013-08-16 14:15:00
9:35 AM,64.4,58.8,82,30.17,10.0,ESE,8.1,-,N/A,,Overcast,120,2013-08-16 14:35:00
9:55 AM,64.8,58.8,81,30.17,10.0,SE,8.1,-,N/A,,Overcast,130,2013-08-16 14:55:00
10:15 AM,65.3,59.0,80,30.17,10.0,SE,10.4,-,N/A,,Overcast,140,2013-08-16 15:15:00
10:35 AM,66.2,59.0,78,30.17,10.0,SE,8.1,-,N/A,,Overcast,130,2013-08-16 15:35:00
10:55 AM,67.1,59.2,76,30.17,10.0,SE,9.2,-,N/A,,Overcast,130,2013-08-16 15:55:00
11:15 AM,67.6,59.2,74,30.17,10.0,SE,9.2,-,N/A,,Overcast,130,2013-08-16 16:15:00
11:35 AM,68.4,59.2,72,30.17,10.0,ESE,9.2,-,N/A,,Overcast,120,2013-08-16 16:35:00
11:55 AM,69.3,59.5,71,30.17,10.0,ESE,8.1,-,N/A,,Overcast,120,2013-08-16 16:55:00
12:15 PM,70.5,59.7,69,30.17,10.0,SE,11.5,-,N/A,,Overcast,140,2013-08-16 17:15:00
12:35 PM,71.4,59.7,66,30.17,10.0,SE,11.5,-,N/A,,Overcast,140,2013-08-16 17:35:00
12:55 PM,72.1,59.4,64,30.17,10.0,ESE,11.5,-,N/A,,Overcast,120,2013-08-16 17:55:00
1:15 PM,72.0,59.5,65,30.16,10.0,SSE,13.8,-,N/A,,Overcast,150,2013-08-16 18:15:00
1:35 PM,72.3,59.9,65,30.16,10.0,SSE,13.8,18.4,N/A,,Overcast,150,2013-08-16 18:35:00
1:55 PM,72.5,59.9,64,30.16,10.0,SE,12.7,-,N/A,,Overcast,130,2013-08-16 18:55:00
2:15 PM,73.0,58.5,60,30.16,10.0,SSE,13.8,18.4,N/A,,Overcast,150,2013-08-16 19:15:00
2:35 PM,73.0,58.6,61,30.16,10.0,SE,12.7,-,N/A,,Overcast,140,2013-08-16 19:35:00
2:55 PM,73.4,58.3,59,30.15,10.0,SE,9.2,18.4,N/A,,Overcast,130,2013-08-16 19:55:00
3:15 PM,74.7,59.0,58,30.15,10.0,ESE,12.7,16.1,N/A,,Mostly Cloudy,120,2013-08-16 20:15:00
3:35 PM,73.2,58.3,59,30.15,10.0,SE,11.5,-,N/A,,Mostly Cloudy,130,2013-08-16 20:35:00
3:55 PM,73.4,58.6,60,30.15,10.0,SSE,11.5,-,N/A,,Overcast,150,2013-08-16 20:55:00
4:15 PM,73.8,58.6,59,30.15,10.0,SE,10.4,-,N/A,,Overcast,140,2013-08-16 21:15:00
4:35 PM,74.5,59.7,60,30.15,10.0,SSE,9.2,-,N/A,,Overcast,160,2013-08-16 21:35:00
4:55 PM,74.3,59.5,60,30.15,10.0,SSE,10.4,-,N/A,,Overcast,160,2013-08-16 21:55:00
5:15 PM,73.6,59.4,61,30.15,10.0,SE,9.2,-,N/A,,Overcast,130,2013-08-16 22:15:00
5:35 PM,74.5,59.7,60,30.15,10.0,SE,8.1,-,N/A,,Overcast,140,2013-08-16 22:35:00
5:55 PM,73.4,59.4,61,30.15,10.0,SE,9.2,-,N/A,,Overcast,130,2013-08-16 22:55:00
6:15 PM,72.7,59.4,63,30.15,10.0,SE,9.2,-,N/A,,Overcast,130,2013-08-16 23:15:00
6:35 PM,72.0,59.9,66,30.15,10.0,SE,5.8,-,N/A,,Overcast,130,2013-08-16 23:35:00
6:55 PM,71.6,60.1,67,30.15,10.0,ESE,8.1,-,N/A,,Overcast,120,2013-08-16 23:55:00
7:15 PM,71.1,59.2,66,30.15,10.0,ESE,6.9,-,N/A,,Overcast,110,2013-08-17 00:15:00
7:35 PM,70.5,59.9,69,30.15,10.0,ESE,5.8,-,N/A,,Overcast,120,2013-08-17 00:35:00
7:55 PM,69.8,59.9,71,30.16,10.0,ESE,4.6,-,N/A,,Overcast,120,2013-08-17 00:55:00
8:15 PM,68.9,60.6,75,30.16,10.0,SE,4.6,-,N/A,,Overcast,140,2013-08-17 01:15:00
8:35 PM,67.6,61.0,79,30.16,10.0,SSE,4.6,-,N/A,,Overcast,150,2013-08-17 01:35:00
8:55 PM,67.1,60.8,80,30.16,10.0,SE,4.6,-,N/A,,Overcast,130,2013-08-17 01:55:00
9:15 PM,66.6,60.8,82,30.17,10.0,SE,4.6,-,N/A,,Overcast,130,2013-08-17 02:15:00
9:35 PM,66.2,60.8,83,30.17,10.0,SE,4.6,-,N/A,,Overcast,130,2013-08-17 02:35:00
9:55 PM,65.5,60.8,85,30.17,10.0,SE,4.6,-,N/A,,Overcast,130,2013-08-17 02:55:00
10:15 PM,65.5,60.8,85,30.17,10.0,ESE,3.5,-,N/A,,Overcast,110,2013-08-17 03:15:00
10:35 PM,65.3,60.6,85,30.17,10.0,ESE,3.5,-,N/A,,Overcast,120,2013-08-17 03:35:00
10:55 PM,64.9,60.1,84,30.17,10.0,Calm,Calm,-,N/A,,Overcast,0,2013-08-17 03:55:00
11:15 PM,63.9,59.5,86,30.17,10.0,Calm,Calm,-,N/A,,Scattered Clouds,0,2013-08-17 04:15:00
11:35 PM,63.1,59.4,87,30.17,10.0,SE,3.5,-,N/A,,Mostly Cloudy,140,2013-08-17 04:35:00
11:55 PM,62.2,59.0,89,30.17,10.0,SE,4.6,-,N/A,,Scattered Clouds,130,2013-08-17 04:55:00